Погода Кривой Рог

Погода Кривой Рог : погода сейчас, прогноз погоды и архив. Всё, что Вы хотите узнать о погоде Кривой Рог!

Поиск расширенной информации на нашем сайте:

Другие новости

Новости СМИ2

Главная страница сайта

Новости сайта

03.07.2017

Напоминаем, что на нашем специализированном сайте Метеоцентр.Азия вы можете получить высокодетализированные автоматические прогнозы погоды по пунктам России, СНГ и мира в авиационном формате (включающие направление и скорость ветра, видимость, явления погоды, количество и форму облачности, нижнюю и верхнюю границу облачности).

Рекомендуем: статья полностью

Погода Кривой Рог - сегодня

Время (UTC), дата Ветер
(°,м/с) 
Видим.   Явления Облачность Т
(°С)
Тd
(°С)
f(%) Тe
(°С)
Pmin
(гПа)
dP
(гПа)
Po
(мм)
O2
(г/м3)
Тmin Tmax R s Состояние
почвы
21 14.02.18 080 (В) 10 км    10/10 660 м 
[Sc]
-2.2 -4.4 85 -6  1022.7  755  307           
00 15.02.18 070 (В) 10 км    10/10 360 м 
[St]
-2.3 -4.5 85 -6  1022.5  -0.2  755  307           
03 15.02.18 060 (СВ) 10 км    10/10 240 м 
[St]
-2.3 -4.5 85 -6  1022.7  0.2  755  307           
06 15.02.18 060 (СВ) 5000 м  дымка  10/10 210 м 
[St]
-1.7 -3.1 90 -5  1023.7  756  307  -2.3         
09 15.02.18 080 (В) 10 км    10/6 300 м средняя 
[St|Ac und]
+0.8 -1.5 85 -3  1024.1  0.6  756  304           
12 15.02.18 090 (В) 10 км    10/10 240 м 
[St]
+0.9 -0.5 90 -3  1024.3  0.2  757  304           
15 15.02.18 070 (В) 1100 м  сильн. снег{дождь}  10/9 150 м средняя 
[Frnb|As op]
-0.3 -1.2 94 -3  1024.8  0.4  757  305          затоплена
водой 
18 15.02.18 070 (В) 3100 м  снег{дождь}  10/9 200 м средняя 
[Frnb|As op]
-0.8 -1.5 95 -3  1026.2  1.3  758  306    +1.5     
21 15.02.18 060 (СВ) 4300 м  дымка{снег}  10/10 180 м 
[St]
-0.7 -2 91 -3  1026.4  0.2  758  306           
00 16.02.18 070 (В) 0200 м  переохл. туман{снег} [диам. гололёда 0 мм]  ?/?  
-0.2 -0.2 100 -1  1026.6  0.3  758  306      0.0     
03 16.02.18 080 (В) 0300 м  слаб. переохл. морось (гололёд){туман}  ?/?  
+0.1 +0.1 100 -2  1026.8  0.2  758  305        219   
06 16.02.18 100 (В) 3500 м  в посл. час туман{морось}  10/10 100 м 
[St]
+0.1 -0.5 96 -2  1027.3  0.5  759  306  -0.8    0.0     
09 16.02.18 100 (В) 1300 м  дымка{туман}  10/10 100 м 
[St]
+0.7 -0.1 94 -1  1027.6  0.3  759  305          затоплена
водой 
12 16.02.18 090 (В) 0900 м  туман  ?/?  
+1.2 +1.2 100 +1  1026.6  -0.9  758  304           
15 16.02.18 070 (В) 0500 м  слаб. морось{туман}  ?/?  
+0.6 +0.6 100 +1  1026.4  -0.3  758  305           
18 16.02.18 100 (В) 0700 м  слаб. морось{туман}  ?/?  
+0.6 +0.6 100 1026.5  0.1  758  305    +1.2  0.0     
21 16.02.18 110 (В) 0400 м  туман{дождь, морось}  ?/?  
+0.8 +0.8 100 -1  1025.8  -0.7  758  304           
00 17.02.18 100 (В) 0400 м  слаб. морось{дождь}  ?/?  
+0.6 +0.6 100 1024.9  -0.9  757  304      0.1     
03 17.02.18 080 (В) 0200 м  туман{морось}  ?/?  
+0.3 +0.3 100 +1  1024.1  -0.8  756  304           
06 17.02.18 130 (ЮВ) 0200 м  туман{морось}  ?/?  
+0.3 +0.3 100 1023.9  -0.2  756  304  +0.2    0.1  <0.5  мокрый или
старый снег
50-90% 
09 17.02.18 190 (Ю) 0400 м  туман  ?/?  
+1.1 +1.1 100 +2  1023.3  -0.5  756  303           
12 17.02.18 310 (СЗ) 10 км  {туман}  10/10 270 м 
[St]
+2 +1.5 96 1022.2  -1  755  302           
15 17.02.18 340 (С) 10 км  в посл. час морось  10/10 450 м 
[St]
+1.4 -0.3 88 1022.4  0.1  755  303           
18 17.02.18 340 (С) 10 км  {морось}  6/6 300 м 
[St]
+0.2 -1.2 90 +1  1023.1  0.6  756  304    +2  0.0     
21 17.02.18 тихо ()   2400 м  дымка  10/10 210 м 
[St]
-0.7 -1.3 96 -1  1023.2  0.1  756  305           
Время (UTC), дата Ветер
(°,м/с) 
Видим.   Явления Облачность Т
(°С)
Тd
(°С)
f(%) Тe
(°С)
Pmin
(гПа)
dP
(гПа)
Po
(мм)
O2
(г/м3)
Тmin Tmax R s Состояние
почвы

Для получения пояснительной информации подведите курсор к названию столбца.

ПОГОДА Кривой Рог - архив

Всё, что Вы хотите узнать о погоде Кривой Рог - удобно и подробно!

Выберите нужную дату (начиная с 1 января 2015* года) и нажмите кнопку "Найти".
Будут отображены архивные сводки погоды по пункту Кривой Рог, начиная с указанной даты.


Отображать данные в формате CSV (для использования в таблицах Excel)


Внимание! Наш архив погоды предназначен исключительно для личного некоммерческого использования в познавательных целях. Если Вам необходимы официальные справки о состоянии погоды (для производственных, юридических, коммерческих и т.п. целей), обращайтесь в органы Росгидромета.

*Примечание: данная дата относится к архиву по метеостанциям СССР (Россия, СНГ, Балтия).
Архив по метеостанциям Зарубежной Европы и Азии (кроме Китая) хранится 10 дней, по другим регионам земного шара (Китай, Африка, Америка, Австралия, Океания) - 1 день.

Кривой Рог - район местоположения метеостанции


Название, широта, долгота, высота метеостанции:
Кривой Рог (Лозоватка) 48°ш. 33.2°д. 124 м над ур. моря [Украина]

Дополнительная информация

В oтличие oт бoльшинства пoгoдных сайтoв мы публикуем пoдрoбную метеoинфoрмацию в детальнoм прoфессиoнальнoм фoрмате.

Характеристики температуры и влажнoсти вoздуха измеряются на высoте 2 м в тени вдали oт зданий и деревьев.
Скoрoсть ветра измеряется на высoте 10 м (на урoвне рoста челoвека скoрoсть ветра ниже в 1.5-2 раза). Если метеoстанция нахoдится в гoрoде или в лесу, тo скoрoсть ветра занижена на 2-4 м/с пo сравнению с oткрытым местoм. Скoрoсть ветра над акватoриями крупных рек и oзёр, а также на вершинах хoлмoв на 2-5 м/с выше, чем в oбычных услoвиях.
Атмoсфернoе давление в разных тoчках местнoсти мoжет значительнo oтличаться oт давления на метеoстанции, в зависимoсти oт услoвий рельефа (при пoдъёме на 10 м давление пoнижается примернo на 1 мм рт.ст.).